CW3081 Weather Reports


time (UTC)temp
C
wind
direction
speed
KPH
gust
KPH
rain 1hr
cm
rain 24hr
cm
rain mn
cm
humidity
%
barometer
mb
20260509204557 24 278 0.0 1.6 0.00 0.00 0.00 51 1010.3
20260509203057 24 0 0.0 3.2 0.00 0.00 0.00 50 1010.2
20260509201538 23 261 0.0 3.2 0.00 0.00 0.00 53 1010.2
20260509200050 23 351 1.6 3.2 0.00 0.00 0.00 53 1010.5
20260509194547 23 124 0.0 3.2 0.00 0.00 0.00 53 1010.7
20260509193044 24 336 0.0 4.8 0.00 0.00 0.00 55 1010.8
20260509191544 24 0 0.0 3.2 0.00 0.00 0.00 55 1010.9
20260509190047 23 329 0.0 4.8 0.00 0.00 0.00 58 1011.0
20260509184543 23 341 1.6 3.2 0.00 0.00 0.00 57 1011.1
20260509183049 23 279 1.6 3.2 0.00 0.00 0.00 59 1011.1
20260509181604 23 0 0.0 1.6 0.00 0.00 0.00 59 1010.9
20260509180047 22 0 0.0 3.2 0.00 0.00 0.00 62 1010.8
20260509174542 23 100 0.0 1.6 0.00 0.00 0.00 63 1010.8
20260509173057 22 323 0.0 3.2 0.00 0.00 0.00 61 1010.8
20260509171539 22 262 1.6 3.2 0.00 0.00 0.00 61 1010.8
20260509170047 22 25 0.0 1.6 0.00 0.00 0.00 66 1010.9
20260509164551 21 326 0.0 1.6 0.00 0.00 0.00 66 1011.0
20260509163058 21 82 1.6 4.8 0.00 0.00 0.00 69 1011.1
20260509161542 21 32 0.0 1.6 0.00 0.00 0.00 72 1011.0
20260509160051 20 349 1.6 3.2 0.00 0.00 0.00 73 1011.2
20260509154545 20 312 0.0 3.2 0.00 0.00 0.00 74 1011.1
20260509153041 19 0 0.0 3.2 0.00 0.00 0.00 77 1010.9
20260509151545 18 0 0.0 4.8 0.00 0.00 0.00 78 1010.8
20260509150042 18 281 0.0 3.2 0.00 0.00 0.00 79 1010.8
20260509144544 17 252 0.0 1.6 0.00 0.00 0.00 81 1010.7
20260509143040 17 30 0.0 4.8 0.00 0.00 0.00 82 1010.6
20260509141550 17 281 1.6 4.8 0.00 0.00 0.00 83 1010.5
20260509140119 16 284 0.0 3.2 0.00 0.00 0.00 84 1010.5
20260509134551 16 282 1.6 4.8 0.00 0.00 0.00 85 1010.6
20260509133057 16 202 0.0 4.8 0.00 0.00 0.00 86 1010.3
20260509131549 15 262 1.6 3.2 0.00 0.00 0.00 87 1010.5
20260509130047 15 237 0.0 1.6 0.00 0.00 0.00 88 1010.5
20260509124547 14 240 0.0 1.6 0.00 0.00 0.00 91 1010.4
20260509123050 -17 0.0 0.0 0.00 0.00 0.00 1010.5
20260509121541 -17 0.0 0.0 0.00 0.00 0.00 1010.6
20260509120042 -17 0.0 0.0 0.00 0.00 0.00 1010.2
20260509114552 -17 0.0 0.0 0.00 0.00 0.00 1009.7
20260509113047 -17 0.0 0.0 0.00 0.00 0.00 1009.5
20260509111543 -17 0.0 0.0 0.00 0.00 0.00 1009.4
20260509110045 -17 0.0 0.0 0.00 0.00 0.00 1009.4
20260509104552 -17 0 0.0 0.0 0.00 0.00 0.00 1009.4
20260509103048 12 0 0.0 0.0 0.00 0.00 0.00 91 1009.4
20260509101546 12 0 0.0 1.6 0.00 0.00 0.00 91 1009.2
20260509100100 12 0 0.0 0.0 0.00 0.00 0.00 90 1009.4
20260509094542 12 0 0.0 1.6 0.00 0.00 0.00 90 1009.7
20260509093048 12 0 0.0 1.6 0.00 0.00 0.00 89 1009.8
20260509091549 12 0 0.0 0.0 0.00 0.00 0.00 88 1009.9
20260509090047 12 0 0.0 1.6 0.00 0.00 0.00 88 1009.7
20260509084548 12 0 0.0 1.6 0.00 0.00 0.00 88 1009.9
20260509083049 12 0 0.0 1.6 0.00 0.00 0.00 87 1009.5
20260509081550 12 0 0.0 0.0 0.00 0.00 0.00 87 1010.0
20260509080105 12 0 0.0 0.0 0.00 0.00 0.00 88 1009.7
20260509074546 12 0 0.0 0.0 0.00 0.00 0.00 88 1009.7
20260509073135 12 0 0.0 0.0 0.00 0.00 0.00 87 1009.3
20260509071545 12 0 0.0 0.0 0.00 0.00 0.00 87 1009.6
20260509070051 12 0 0.0 0.0 0.00 0.00 0.00 86 1009.9
20260509064549 12 0 0.0 0.0 0.00 0.00 0.00 84 1010.0
20260509063046 12 0 0.0 0.0 0.00 0.00 0.00 83 1010.2
20260509061552 13 0 0.0 0.0 0.00 0.00 0.00 81 1010.6
20260509060050 13 0 0.0 0.0 0.00 0.00 0.00 80 1010.7
20260509054549 13 0 0.0 0.0 0.00 0.00 0.00 79 1010.8
20260509053052 13 0 0.0 1.6 0.00 0.00 0.00 78 1010.8
20260509051556 14 0 0.0 1.6 0.00 0.00 0.00 76 1010.8
20260509050045 14 0 0.0 0.0 0.00 0.00 0.00 75 1010.4
20260509044546 15 0 0.0 0.0 0.00 0.00 0.00 74 1010.7
20260509043051 15 0 0.0 1.6 0.00 0.00 0.00 72 1010.6
20260509041542 15 223 0.0 1.6 0.00 0.00 0.00 71 1010.6
20260509040057 15 0 0.0 0.0 0.00 0.00 0.00 70 1010.8
20260509034539 15 0 0.0 0.0 0.00 0.00 0.00 68 1010.8
20260509033042 15 0 0.0 0.0 0.00 0.00 0.00 67 1010.8
20260509031549 16 0 0.0 0.0 0.00 0.00 0.00 66 1010.9
20260509030050 16 0 0.0 0.0 0.00 0.00 0.00 65 1011.1
20260509024545 16 189 0.0 0.0 0.00 0.00 0.00 64 1011.0
20260509023041 16 0 0.0 0.0 0.00 0.00 0.00 63 1010.8
20260509021548 16 189 0.0 0.0 0.00 0.00 0.00 62 1010.9
20260509020047 16 0 0.0 0.0 0.00 0.00 0.00 62 1010.9
20260509014543 16 0 0.0 0.0 0.00 0.00 0.00 63 1010.9
20260509013100 16 0 0.0 0.0 0.00 0.00 0.00 65 1010.7
20260509011554 16 0 0.0 0.0 0.00 0.00 0.00 66 1010.7
20260509010044 17 0 0.0 0.0 0.00 0.00 0.00 65 1010.7
20260509004605 18 0 0.0 0.0 0.00 0.00 0.00 62 1010.7
20260509003051 18 0 0.0 0.0 0.00 0.00 0.00 56 1010.8
20260509001546 20 0 0.0 0.0 0.00 0.00 0.00 55 1010.7
20260509000047 20 186 0.0 1.6 0.00 0.00 0.00 52 1010.8
20260508234549 21 0 0.0 0.0 0.00 0.00 0.00 48 1010.9
20260508233051 21 0 0.0 0.0 0.00 0.00 0.00 45 1011.1
20260508231543 21 186 0.0 1.6 0.00 0.00 0.00 44 1011.0
20260508230056 21 184 0.0 3.2 0.00 0.00 0.00 45 1011.1
20260508224547 21 193 1.6 3.2 0.00 0.00 0.00 42 1011.1
20260508223046 21 0 0.0 4.8 0.00 0.00 0.00 43 1011.1
20260508221550 22 236 0.0 1.6 0.00 0.00 0.00 41 1011.2
20260508220050 22 0 0.0 3.2 0.00 0.00 0.00 42 1011.4
20260508214549 22 218 1.6 3.2 0.00 0.00 0.00 40 1011.4
20260508213045 22 262 1.6 3.2 0.00 0.00 0.00 41 1011.6
20260508211544 22 195 0.0 3.2 0.00 0.00 0.00 41 1011.4
20260508210055 22 153 1.6 3.2 0.00 0.00 0.00 41 1011.6